Location: ???????
(55.4362°N, 38.1183°E)
Time: 20:18:12
(UTC+00:00)

USA 267 - Pass Details

Date: 02 November 2021
Orbit: 1101 x 1107 km, 123.0° (Epoch: 27 November)

Event Time Altitude Azimuth Distance (km) Brightness Sun altitude
Exits shadow 18:27:27 13° 230° (SW) 2,710 5.4 -38.8°
Maximum altitude 18:28:24 14° 239° (WSW) 2,685 5.5 -38.9°
Drops below altitude 10° 18:31:30 10° 268° (W) 2,961 6.0 -39.3°
Sets 18:35:36 0° 293° (WNW) 3,924 7.0 -39.8°
